Location: Ocean City
(38.3360°N, 75.0850°W)
Time: 01:49:31
(UTC-05:00)

Explorer 11/Cluster Stage 4 - Pass Details

Date: 14 November 2019
Orbit: 467 x 1259 km, 28.8° (Epoch: 05 December)

Event Time Altitude Azimuth Distance (km) Brightness Sun altitude
Rises 00:34:49 0° 259° (W) 4,055 - -67.0°
Reaches altitude 10° 00:37:46 10° 252° (WSW) 3,156 - -66.7°
Maximum altitude 00:45:12 41° 186° (S) 1,739 - -65.9°
Drops below altitude 10° 00:52:42 10° 120° (ESE) 3,175 - -65.0°
Sets 00:55:41 0° 113° (ESE) 4,080 - -64.6°
